Year,Month,Day,Hour,Minute,Value (Times are PST for temperature in C)
2014,07,19,00,00,15.70
2014,07,19,00,01,15.70
2014,07,19,00,02,15.70
2014,07,19,00,03,15.70
2014,07,19,00,04,15.70
2014,07,19,00,05,15.70
2014,07,19,00,06,15.70
2014,07,19,00,07,15.70
2014,07,19,00,08,15.70
2014,07,19,00,09,15.70
2014,07,19,00,10,15.70
2014,07,19,00,11,15.70
2014,07,19,00,12,15.80
2014,07,19,00,13,15.80
2014,07,19,00,14,15.80
2014,07,19,00,15,15.80
2014,07,19,00,16,15.80
2014,07,19,00,17,15.70
2014,07,19,00,18,15.70
2014,07,19,00,19,15.70
2014,07,19,00,20,15.70
2014,07,19,00,21,15.70
2014,07,19,00,22,15.70
2014,07,19,00,23,15.60
2014,07,19,00,24,15.60
2014,07,19,00,25,15.50
2014,07,19,00,26,15.50
2014,07,19,00,27,15.50
2014,07,19,00,28,15.40
2014,07,19,00,29,15.40
2014,07,19,00,30,15.40
2014,07,19,00,31,15.30
2014,07,19,00,32,15.30
2014,07,19,00,33,15.30
2014,07,19,00,34,15.30
2014,07,19,00,35,15.30
2014,07,19,00,36,15.30
2014,07,19,00,37,15.30
2014,07,19,00,38,15.30
2014,07,19,00,39,15.30
2014,07,19,00,40,15.30
2014,07,19,00,41,15.30
2014,07,19,00,42,15.40
2014,07,19,00,43,15.40
2014,07,19,00,44,15.40
2014,07,19,00,45,15.40
2014,07,19,00,46,15.50
2014,07,19,00,47,15.50
2014,07,19,00,48,15.60
2014,07,19,00,49,15.60
2014,07,19,00,50,15.70
2014,07,19,00,51,15.70
2014,07,19,00,52,15.70
2014,07,19,00,53,15.70
2014,07,19,00,54,15.80
2014,07,19,00,55,15.80
2014,07,19,00,56,15.80
2014,07,19,00,57,15.80
2014,07,19,00,58,15.80
2014,07,19,00,59,15.80
2014,07,19,01,00,15.80
2014,07,19,01,01,15.80
2014,07,19,01,02,15.80
2014,07,19,01,03,15.80
2014,07,19,01,04,15.70
2014,07,19,01,05,15.70
2014,07,19,01,06,15.60
2014,07,19,01,07,15.50
2014,07,19,01,08,15.40
2014,07,19,01,09,15.40
2014,07,19,01,10,15.30
2014,07,19,01,11,15.30
2014,07,19,01,12,15.30
2014,07,19,01,13,15.20
2014,07,19,01,14,15.20
2014,07,19,01,15,15.20
2014,07,19,01,16,15.20
2014,07,19,01,17,15.20
2014,07,19,01,18,15.20
2014,07,19,01,19,15.20
2014,07,19,01,20,15.20
2014,07,19,01,21,15.20
2014,07,19,01,22,15.20
2014,07,19,01,23,15.20
2014,07,19,01,24,15.20
2014,07,19,01,25,15.20
2014,07,19,01,26,15.20
2014,07,19,01,27,15.20
2014,07,19,01,28,15.20
2014,07,19,01,29,15.20
2014,07,19,01,30,15.20
2014,07,19,01,31,15.20
2014,07,19,01,32,15.20
2014,07,19,01,33,15.20
2014,07,19,01,34,15.20
2014,07,19,01,35,15.20
2014,07,19,01,36,15.20
2014,07,19,01,37,15.20
2014,07,19,01,38,15.20
2014,07,19,01,39,15.20
2014,07,19,01,40,15.20
2014,07,19,01,41,15.20
2014,07,19,01,42,15.20
2014,07,19,01,43,15.20
2014,07,19,01,44,15.20
2014,07,19,01,45,15.20
2014,07,19,01,46,15.20
2014,07,19,01,47,15.30
2014,07,19,01,48,15.30
2014,07,19,01,49,15.30
2014,07,19,01,50,15.30
2014,07,19,01,51,15.30
2014,07,19,01,52,15.30
2014,07,19,01,53,15.30
2014,07,19,01,54,15.30
2014,07,19,01,55,15.30
2014,07,19,01,56,15.30
2014,07,19,01,57,15.30
2014,07,19,01,58,15.30
2014,07,19,01,59,15.30
2014,07,19,02,00,15.30
2014,07,19,02,01,15.30
2014,07,19,02,02,15.30
2014,07,19,02,03,15.30
2014,07,19,02,04,15.30
2014,07,19,02,05,15.30
2014,07,19,02,06,15.30
2014,07,19,02,07,15.30
2014,07,19,02,08,15.30
2014,07,19,02,09,15.30
2014,07,19,02,10,15.30
2014,07,19,02,11,15.30
2014,07,19,02,12,15.30
2014,07,19,02,13,15.30
2014,07,19,02,14,15.30
2014,07,19,02,15,15.30
2014,07,19,02,16,15.30
2014,07,19,02,17,15.30
2014,07,19,02,18,15.30
2014,07,19,02,19,15.30
2014,07,19,02,20,15.30
2014,07,19,02,21,15.30
2014,07,19,02,22,15.20
2014,07,19,02,23,15.20
2014,07,19,02,24,15.20
2014,07,19,02,25,15.30
2014,07,19,02,26,15.20
2014,07,19,02,27,15.20
2014,07,19,02,28,15.30
2014,07,19,02,29,15.20
2014,07,19,02,30,15.20
2014,07,19,02,31,15.20
2014,07,19,02,32,15.20
2014,07,19,02,33,15.20
2014,07,19,02,34,15.20
2014,07,19,02,35,15.20
2014,07,19,02,36,15.20
2014,07,19,02,37,15.20
2014,07,19,02,38,15.20
2014,07,19,02,39,15.20
2014,07,19,02,40,15.20
2014,07,19,02,41,15.20
2014,07,19,02,42,15.20
2014,07,19,02,43,15.20
2014,07,19,02,44,15.20
2014,07,19,02,45,15.20
2014,07,19,02,46,15.20
2014,07,19,02,47,15.20
2014,07,19,02,48,15.20
2014,07,19,02,49,15.20
2014,07,19,02,50,15.20
2014,07,19,02,51,15.20
2014,07,19,02,52,15.20
2014,07,19,02,53,15.20
2014,07,19,02,54,15.20
2014,07,19,02,55,15.20
2014,07,19,02,56,15.20
2014,07,19,02,57,15.20
2014,07,19,02,58,15.20
2014,07,19,02,59,15.20
2014,07,19,03,00,15.10
2014,07,19,03,01,15.10
2014,07,19,03,02,15.10
2014,07,19,03,03,15.10
2014,07,19,03,04,15.10
2014,07,19,03,05,15.10
2014,07,19,03,06,15.10
2014,07,19,03,07,15.10
2014,07,19,03,08,15.20
2014,07,19,03,09,15.10
2014,07,19,03,10,15.10
2014,07,19,03,11,15.20
2014,07,19,03,12,15.20
2014,07,19,03,13,15.20
2014,07,19,03,14,15.20
2014,07,19,03,15,15.20
2014,07,19,03,16,15.20
2014,07,19,03,17,15.20
2014,07,19,03,18,15.30
2014,07,19,03,19,15.30
2014,07,19,03,20,15.30
2014,07,19,03,21,15.30
2014,07,19,03,22,15.30
2014,07,19,03,23,15.40
2014,07,19,03,24,15.40
2014,07,19,03,25,15.40
2014,07,19,03,26,15.40
2014,07,19,03,27,15.40
2014,07,19,03,28,15.50
2014,07,19,03,29,15.50
2014,07,19,03,30,15.60
2014,07,19,03,31,15.60
2014,07,19,03,32,15.60
2014,07,19,03,33,15.60
2014,07,19,03,34,15.70
2014,07,19,03,35,15.70
2014,07,19,03,36,15.70
2014,07,19,03,37,15.80
2014,07,19,03,38,15.80
2014,07,19,03,39,15.80
2014,07,19,03,40,15.90
2014,07,19,03,41,15.90
2014,07,19,03,42,15.90
2014,07,19,03,43,15.90
2014,07,19,03,44,15.90
2014,07,19,03,45,15.90
2014,07,19,03,46,15.90
2014,07,19,03,47,15.90
2014,07,19,03,48,16.00
2014,07,19,03,49,15.90
2014,07,19,03,50,15.90
2014,07,19,03,51,15.90
2014,07,19,03,52,15.90
2014,07,19,03,53,15.90
2014,07,19,03,54,16.00
2014,07,19,03,55,16.00
2014,07,19,03,56,16.10
2014,07,19,03,57,16.20
2014,07,19,03,58,16.30
2014,07,19,03,59,16.30
2014,07,19,04,00,16.20
2014,07,19,04,01,16.20
2014,07,19,04,02,16.30
2014,07,19,04,03,16.30
2014,07,19,04,04,16.40
2014,07,19,04,05,16.50
2014,07,19,04,06,16.80
2014,07,19,04,07,17.00
2014,07,19,04,08,17.30
2014,07,19,04,09,17.40
2014,07,19,04,10,17.70
2014,07,19,04,11,17.90
2014,07,19,04,12,18.00
2014,07,19,04,13,18.10
2014,07,19,04,14,18.00
2014,07,19,04,15,17.90
2014,07,19,04,16,17.80
2014,07,19,04,17,17.60
2014,07,19,04,18,17.50
2014,07,19,04,19,17.40
2014,07,19,04,20,17.30
2014,07,19,04,21,17.20
2014,07,19,04,22,17.10
2014,07,19,04,23,17.00
2014,07,19,04,24,16.90
2014,07,19,04,25,16.80
2014,07,19,04,26,16.70
2014,07,19,04,27,16.70
2014,07,19,04,28,16.60
2014,07,19,04,29,16.50
2014,07,19,04,30,16.50
2014,07,19,04,31,16.40
2014,07,19,04,32,16.30
2014,07,19,04,33,16.30
2014,07,19,04,34,16.20
2014,07,19,04,35,16.20
2014,07,19,04,36,16.10
2014,07,19,04,37,16.10
2014,07,19,04,38,16.10
2014,07,19,04,39,16.00
2014,07,19,04,40,16.00
2014,07,19,04,41,15.90
2014,07,19,04,42,15.90
2014,07,19,04,43,15.90
2014,07,19,04,44,15.90
2014,07,19,04,45,15.90
2014,07,19,04,46,15.90
2014,07,19,04,47,15.90
2014,07,19,04,48,15.90
2014,07,19,04,49,15.90
2014,07,19,04,50,15.90
2014,07,19,04,51,15.90
2014,07,19,04,52,15.90
2014,07,19,04,53,15.90
2014,07,19,04,54,15.90
2014,07,19,04,55,15.90
2014,07,19,04,56,15.90
2014,07,19,04,57,15.90
2014,07,19,04,58,15.90
2014,07,19,04,59,15.90
2014,07,19,05,00,15.90
2014,07,19,05,01,15.90
2014,07,19,05,02,15.90
2014,07,19,05,03,16.00
2014,07,19,05,04,16.00
2014,07,19,05,05,16.00
2014,07,19,05,06,16.10
2014,07,19,05,07,16.10
2014,07,19,05,08,16.10
2014,07,19,05,09,16.20
2014,07,19,05,10,16.20
2014,07,19,05,11,16.20
2014,07,19,05,12,16.20
2014,07,19,05,13,16.20
2014,07,19,05,14,16.20
2014,07,19,05,15,16.20
2014,07,19,05,16,16.20
2014,07,19,05,17,16.20
2014,07,19,05,18,16.30
2014,07,19,05,19,16.20
2014,07,19,05,20,16.20
2014,07,19,05,21,16.20
2014,07,19,05,22,16.20
2014,07,19,05,23,16.10
2014,07,19,05,24,16.10
2014,07,19,05,25,16.10
2014,07,19,05,26,16.10
2014,07,19,05,27,16.10
2014,07,19,05,28,16.20
2014,07,19,05,29,16.20
2014,07,19,05,30,16.20
2014,07,19,05,31,16.30
2014,07,19,05,32,16.30
2014,07,19,05,33,16.30
2014,07,19,05,34,16.40
2014,07,19,05,35,16.40
2014,07,19,05,36,16.50
2014,07,19,05,37,16.50
2014,07,19,05,38,16.60
2014,07,19,05,39,16.60
2014,07,19,05,40,16.60
2014,07,19,05,41,16.70
2014,07,19,05,42,16.80
2014,07,19,05,43,16.80
2014,07,19,05,44,16.90
2014,07,19,05,45,16.90
2014,07,19,05,46,17.00
2014,07,19,05,47,17.10
2014,07,19,05,48,17.10
2014,07,19,05,49,17.20
2014,07,19,05,50,17.20
2014,07,19,05,51,17.20
2014,07,19,05,52,17.20
2014,07,19,05,53,17.20
2014,07,19,05,54,17.20
2014,07,19,05,55,17.20
2014,07,19,05,56,17.20
2014,07,19,05,57,17.20
2014,07,19,05,58,17.20
2014,07,19,05,59,17.20
2014,07,19,06,00,17.20
2014,07,19,06,01,17.20
2014,07,19,06,02,17.20
2014,07,19,06,03,17.20
2014,07,19,06,04,17.20
2014,07,19,06,05,17.10
2014,07,19,06,06,17.10
2014,07,19,06,07,17.10
2014,07,19,06,08,17.10
2014,07,19,06,09,17.10
2014,07,19,06,10,17.10
2014,07,19,06,11,17.10
2014,07,19,06,12,17.20
2014,07,19,06,13,17.30
2014,07,19,06,14,17.30
2014,07,19,06,15,17.30
2014,07,19,06,16,17.30
2014,07,19,06,17,17.40
2014,07,19,06,18,17.40
2014,07,19,06,19,17.40
2014,07,19,06,20,17.50
2014,07,19,06,21,17.50
2014,07,19,06,22,17.50
2014,07,19,06,23,17.60
2014,07,19,06,24,17.60
2014,07,19,06,25,17.60
2014,07,19,06,26,17.60
2014,07,19,06,27,17.60
2014,07,19,06,28,17.70
2014,07,19,06,29,17.70
2014,07,19,06,30,17.70
2014,07,19,06,31,17.80
2014,07,19,06,32,17.80
2014,07,19,06,33,17.90
2014,07,19,06,34,18.00
2014,07,19,06,35,18.00
2014,07,19,06,36,18.10
2014,07,19,06,37,18.10
2014,07,19,06,38,18.10
2014,07,19,06,39,18.20
2014,07,19,06,40,18.20
2014,07,19,06,41,18.30
2014,07,19,06,42,18.30
2014,07,19,06,43,18.30
2014,07,19,06,44,18.30
2014,07,19,06,45,18.30
2014,07,19,06,46,18.30
2014,07,19,06,47,18.30
2014,07,19,06,48,18.30
2014,07,19,06,49,18.30
2014,07,19,06,50,18.30
2014,07,19,06,51,18.30
2014,07,19,06,52,18.30
2014,07,19,06,53,18.30
2014,07,19,06,54,18.30
2014,07,19,06,55,18.30
2014,07,19,06,56,18.30
2014,07,19,06,57,18.30
2014,07,19,06,58,18.30
2014,07,19,06,59,18.30
2014,07,19,07,00,18.30
2014,07,19,07,01,18.30
2014,07,19,07,02,18.30
2014,07,19,07,03,18.30
2014,07,19,07,04,18.30
2014,07,19,07,05,18.30
2014,07,19,07,06,18.30
2014,07,19,07,07,18.30
2014,07,19,07,08,18.20
2014,07,19,07,09,18.00
2014,07,19,07,10,17.90
2014,07,19,07,11,17.80
2014,07,19,07,12,17.70
2014,07,19,07,13,17.60
2014,07,19,07,14,17.60
2014,07,19,07,15,17.50
2014,07,19,07,16,17.40
2014,07,19,07,17,17.40
2014,07,19,07,18,17.30
2014,07,19,07,19,17.20
2014,07,19,07,20,17.10
2014,07,19,07,21,17.10
2014,07,19,07,22,17.00
2014,07,19,07,23,17.00
2014,07,19,07,24,17.00
2014,07,19,07,25,17.00
2014,07,19,07,26,16.90
2014,07,19,07,27,16.90
2014,07,19,07,28,16.90
2014,07,19,07,29,16.90
2014,07,19,07,30,16.90
2014,07,19,07,31,16.90
2014,07,19,07,32,16.80
2014,07,19,07,33,16.80
2014,07,19,07,34,16.80
2014,07,19,07,35,16.80
2014,07,19,07,36,16.80
2014,07,19,07,37,16.80
2014,07,19,07,38,16.80
2014,07,19,07,39,16.70
2014,07,19,07,40,16.70
2014,07,19,07,41,16.70
2014,07,19,07,42,16.70
2014,07,19,07,43,16.70
2014,07,19,07,44,16.70
2014,07,19,07,45,16.70
2014,07,19,07,46,16.70
2014,07,19,07,47,16.70
2014,07,19,07,48,16.70
2014,07,19,07,49,16.70
2014,07,19,07,50,16.80
2014,07,19,07,51,16.80
2014,07,19,07,52,16.80
2014,07,19,07,53,16.80
2014,07,19,07,54,16.80
2014,07,19,07,55,16.80
2014,07,19,07,56,16.80
2014,07,19,07,57,16.70
2014,07,19,07,58,16.70
2014,07,19,07,59,16.70
2014,07,19,08,00,16.70
2014,07,19,08,01,16.70
2014,07,19,08,02,16.70
2014,07,19,08,03,16.60
2014,07,19,08,04,16.60
2014,07,19,08,05,16.60
2014,07,19,08,06,16.60
2014,07,19,08,07,16.60
2014,07,19,08,08,16.60
2014,07,19,08,09,16.50
2014,07,19,08,10,16.50
2014,07,19,08,11,16.50
2014,07,19,08,12,16.50
2014,07,19,08,13,16.50
2014,07,19,08,14,16.50
2014,07,19,08,15,16.50
2014,07,19,08,16,16.60
2014,07,19,08,17,16.60
2014,07,19,08,18,16.60
2014,07,19,08,19,16.60
2014,07,19,08,20,16.60
2014,07,19,08,21,16.60
2014,07,19,08,22,16.70
2014,07,19,08,23,16.70
2014,07,19,08,24,16.70
2014,07,19,08,25,16.70
2014,07,19,08,26,16.70
2014,07,19,08,27,16.70
2014,07,19,08,28,16.70
2014,07,19,08,29,16.70
2014,07,19,08,30,16.80
2014,07,19,08,31,16.80
2014,07,19,08,32,16.80
2014,07,19,08,33,16.80
2014,07,19,08,34,16.90
2014,07,19,08,35,16.90
2014,07,19,08,36,17.00
2014,07,19,08,37,17.00
2014,07,19,08,38,17.10
2014,07,19,08,39,17.10
2014,07,19,08,40,17.20
2014,07,19,08,41,17.20
2014,07,19,08,42,17.30
2014,07,19,08,43,17.30
2014,07,19,08,44,17.30
2014,07,19,08,45,17.40
2014,07,19,08,46,17.50
2014,07,19,08,47,17.60
2014,07,19,08,48,17.70
2014,07,19,08,49,17.80
2014,07,19,08,50,17.90
2014,07,19,08,51,18.00
2014,07,19,08,52,18.10
2014,07,19,08,53,18.20
2014,07,19,08,54,18.30
2014,07,19,08,55,18.30
2014,07,19,08,56,18.40
2014,07,19,08,57,18.40
2014,07,19,08,58,18.50
2014,07,19,08,59,18.50
2014,07,19,09,00,18.60
2014,07,19,09,01,18.60
2014,07,19,09,02,18.70
2014,07,19,09,03,18.80
2014,07,19,09,04,18.90
2014,07,19,09,05,19.00
2014,07,19,09,06,19.00
2014,07,19,09,07,19.10
2014,07,19,09,08,19.20
2014,07,19,09,09,19.20
2014,07,19,09,10,19.30
2014,07,19,09,11,19.30
2014,07,19,09,12,19.40
2014,07,19,09,13,19.40
2014,07,19,09,14,19.50
2014,07,19,09,15,19.50
2014,07,19,09,16,19.40
2014,07,19,09,17,19.40
2014,07,19,09,18,19.50
2014,07,19,09,19,19.60
2014,07,19,09,20,19.60
2014,07,19,09,21,19.70
2014,07,19,09,22,19.70
2014,07,19,09,23,19.80
2014,07,19,09,24,19.90
2014,07,19,09,25,19.80
2014,07,19,09,26,19.80
2014,07,19,09,27,19.90
2014,07,19,09,28,20.00
2014,07,19,09,29,20.00
2014,07,19,09,30,20.00
2014,07,19,09,31,19.90
2014,07,19,09,32,19.90
2014,07,19,09,33,19.90
2014,07,19,09,34,19.90
2014,07,19,09,35,20.00
2014,07,19,09,36,20.10
2014,07,19,09,37,20.20
2014,07,19,09,38,20.20
2014,07,19,09,39,20.20
2014,07,19,09,40,20.20
2014,07,19,09,41,20.30
2014,07,19,09,42,20.40
2014,07,19,09,43,20.40
2014,07,19,09,44,20.40
2014,07,19,09,45,20.50
2014,07,19,09,46,20.60
2014,07,19,09,47,20.60
2014,07,19,09,48,20.70
2014,07,19,09,49,20.70
2014,07,19,09,50,20.70
2014,07,19,09,51,20.60
2014,07,19,09,52,20.60
2014,07,19,09,53,20.60
2014,07,19,09,54,20.70
2014,07,19,09,55,20.70
2014,07,19,09,56,20.70
2014,07,19,09,57,20.80
2014,07,19,09,58,20.80
2014,07,19,09,59,20.80
2014,07,19,10,00,20.70
2014,07,19,10,01,20.70
2014,07,19,10,02,20.80
2014,07,19,10,03,20.80
2014,07,19,10,04,20.80
2014,07,19,10,05,20.80
2014,07,19,10,06,20.80
2014,07,19,10,07,20.90
2014,07,19,10,08,20.90
2014,07,19,10,09,21.10
2014,07,19,10,10,21.20
2014,07,19,10,11,21.40
2014,07,19,10,12,21.50
2014,07,19,10,13,21.60
2014,07,19,10,14,21.70
2014,07,19,10,15,21.70
2014,07,19,10,16,21.70
2014,07,19,10,17,21.70
2014,07,19,10,18,21.80
2014,07,19,10,19,21.80
2014,07,19,10,20,21.80
2014,07,19,10,21,21.90
2014,07,19,10,22,21.90
2014,07,19,10,23,21.90
2014,07,19,10,24,21.90
2014,07,19,10,25,21.80
2014,07,19,10,26,21.70
2014,07,19,10,27,21.70
2014,07,19,10,28,21.70
2014,07,19,10,29,21.70
2014,07,19,10,30,21.70
2014,07,19,10,31,21.70
2014,07,19,10,32,21.70
2014,07,19,10,33,21.60
2014,07,19,10,34,21.60
2014,07,19,10,35,21.60
2014,07,19,10,36,21.60
2014,07,19,10,37,21.60
2014,07,19,10,38,21.60
2014,07,19,10,39,21.60
2014,07,19,10,40,21.60
2014,07,19,10,41,21.50
2014,07,19,10,42,21.40
2014,07,19,10,43,21.40
2014,07,19,10,44,21.40
2014,07,19,10,45,21.40
2014,07,19,10,46,21.40
2014,07,19,10,47,21.40
2014,07,19,10,48,21.40
2014,07,19,10,49,21.40
2014,07,19,10,50,21.40
2014,07,19,10,51,21.40
2014,07,19,10,52,21.30
2014,07,19,10,53,21.30
2014,07,19,10,54,21.40
2014,07,19,10,55,21.30
2014,07,19,10,56,21.30
2014,07,19,10,57,21.30
2014,07,19,10,58,21.30
2014,07,19,10,59,21.30
2014,07,19,11,00,21.40
2014,07,19,11,01,21.40
2014,07,19,11,02,21.40
2014,07,19,11,03,21.40
2014,07,19,11,04,21.40
2014,07,19,11,05,21.30
2014,07,19,11,06,21.30
2014,07,19,11,07,21.30
2014,07,19,11,08,21.20
2014,07,19,11,09,21.10
2014,07,19,11,10,21.00
2014,07,19,11,11,20.90
2014,07,19,11,12,20.80
2014,07,19,11,13,20.70
2014,07,19,11,14,20.60
2014,07,19,11,15,20.60
2014,07,19,11,16,20.60
2014,07,19,11,17,20.60
2014,07,19,11,18,20.60
2014,07,19,11,19,20.60
2014,07,19,11,20,20.70
2014,07,19,11,21,20.70
2014,07,19,11,22,20.80
2014,07,19,11,23,20.80
2014,07,19,11,24,20.90
2014,07,19,11,25,20.90
2014,07,19,11,26,20.90
2014,07,19,11,27,20.90
2014,07,19,11,28,20.90
2014,07,19,11,29,21.00
2014,07,19,11,30,21.00
2014,07,19,11,31,21.10
2014,07,19,11,32,21.10
2014,07,19,11,33,21.10
2014,07,19,11,34,21.10
2014,07,19,11,35,21.00
2014,07,19,11,36,20.90
2014,07,19,11,37,20.90
2014,07,19,11,38,20.80
2014,07,19,11,39,20.80
2014,07,19,11,40,20.80
2014,07,19,11,41,20.80
2014,07,19,11,42,20.80
2014,07,19,11,43,20.80
2014,07,19,11,44,20.90
2014,07,19,11,45,20.90
2014,07,19,11,46,20.90
2014,07,19,11,47,20.90
2014,07,19,11,48,21.00
2014,07,19,11,49,21.00
2014,07,19,11,50,21.10
2014,07,19,11,51,21.10
2014,07,19,11,52,21.30
2014,07,19,11,53,21.30
2014,07,19,11,54,21.30
2014,07,19,11,55,21.30
2014,07,19,11,56,21.40
2014,07,19,11,57,21.40
2014,07,19,11,58,21.40
2014,07,19,11,59,21.40
2014,07,19,12,00,21.30
2014,07,19,12,01,21.30
2014,07,19,12,02,21.20
2014,07,19,12,03,21.10
2014,07,19,12,04,21.10
2014,07,19,12,05,21.10
2014,07,19,12,06,21.10
2014,07,19,12,07,21.20
2014,07,19,12,08,21.30
2014,07,19,12,09,21.30
2014,07,19,12,10,21.30
2014,07,19,12,11,21.40
2014,07,19,12,12,21.50
2014,07,19,12,13,21.60
2014,07,19,12,14,21.70
2014,07,19,12,15,21.80
2014,07,19,12,16,22.00
2014,07,19,12,17,22.10
2014,07,19,12,18,22.10
2014,07,19,12,19,22.20
2014,07,19,12,20,22.20
2014,07,19,12,21,22.10
2014,07,19,12,22,22.10
2014,07,19,12,23,22.10
2014,07,19,12,24,22.20
2014,07,19,12,25,22.20
2014,07,19,12,26,22.20
2014,07,19,12,27,22.30
2014,07,19,12,28,22.20
2014,07,19,12,29,22.10
2014,07,19,12,30,22.10
2014,07,19,12,31,22.10
2014,07,19,12,32,22.10
2014,07,19,12,33,22.00
2014,07,19,12,34,21.90
2014,07,19,12,35,21.90
2014,07,19,12,36,21.80
2014,07,19,12,37,21.80
2014,07,19,12,38,21.80
2014,07,19,12,39,21.80
2014,07,19,12,40,21.80
2014,07,19,12,41,21.80
2014,07,19,12,42,21.80
2014,07,19,12,43,21.70
2014,07,19,12,44,21.70
2014,07,19,12,45,21.70
2014,07,19,12,46,21.70
2014,07,19,12,47,21.70
2014,07,19,12,48,21.70
2014,07,19,12,49,21.70
2014,07,19,12,50,21.70
2014,07,19,12,51,21.70
2014,07,19,12,52,21.70
2014,07,19,12,53,21.70
2014,07,19,12,54,21.70
2014,07,19,12,55,21.60
2014,07,19,12,56,21.50
2014,07,19,12,57,21.50
2014,07,19,12,58,21.40
2014,07,19,12,59,21.40
2014,07,19,13,00,21.40
2014,07,19,13,01,21.40
2014,07,19,13,02,21.40
2014,07,19,13,03,21.40
2014,07,19,13,04,21.40
2014,07,19,13,05,21.30
2014,07,19,13,06,21.30
2014,07,19,13,07,21.30
2014,07,19,13,08,21.30
2014,07,19,13,09,21.30
2014,07,19,13,10,21.30
2014,07,19,13,11,21.30
2014,07,19,13,12,21.30
2014,07,19,13,13,21.30
2014,07,19,13,14,21.30
2014,07,19,13,15,21.30
2014,07,19,13,16,21.20
2014,07,19,13,17,21.20
2014,07,19,13,18,21.20
2014,07,19,13,19,21.20
2014,07,19,13,20,21.30
2014,07,19,13,21,21.30
2014,07,19,13,22,21.30
2014,07,19,13,23,21.20
2014,07,19,13,24,21.20
2014,07,19,13,25,21.20
2014,07,19,13,26,21.20
2014,07,19,13,27,21.20
2014,07,19,13,28,21.20
2014,07,19,13,29,21.20
2014,07,19,13,30,21.20
2014,07,19,13,31,21.10
2014,07,19,13,32,21.10
2014,07,19,13,33,21.10
2014,07,19,13,34,21.10
2014,07,19,13,35,21.10
2014,07,19,13,36,21.10
2014,07,19,13,37,21.20
2014,07,19,13,38,21.20
2014,07,19,13,39,21.30
2014,07,19,13,40,21.30
2014,07,19,13,41,21.40
2014,07,19,13,42,21.40
2014,07,19,13,43,21.50
2014,07,19,13,44,21.50
2014,07,19,13,45,21.60
2014,07,19,13,46,21.60
2014,07,19,13,47,21.70
2014,07,19,13,48,21.70
2014,07,19,13,49,21.80
2014,07,19,13,50,21.80
2014,07,19,13,51,21.80
2014,07,19,13,52,21.90
2014,07,19,13,53,21.90
2014,07,19,13,54,21.90
2014,07,19,13,55,21.90
2014,07,19,13,56,21.90
2014,07,19,13,57,22.00
2014,07,19,13,58,22.00
2014,07,19,13,59,22.00
2014,07,19,14,00,22.00
2014,07,19,14,01,22.10
2014,07,19,14,02,22.10
2014,07,19,14,03,22.10
2014,07,19,14,04,22.00
2014,07,19,14,05,22.10
2014,07,19,14,06,22.10
2014,07,19,14,07,22.10
2014,07,19,14,08,22.10
2014,07,19,14,09,22.10
2014,07,19,14,10,22.10
2014,07,19,14,11,22.10
2014,07,19,14,12,22.20
2014,07,19,14,13,22.20
2014,07,19,14,14,22.30
2014,07,19,14,15,22.30
2014,07,19,14,16,22.40
2014,07,19,14,17,22.50
2014,07,19,14,18,22.50
2014,07,19,14,19,22.60
2014,07,19,14,20,22.60
2014,07,19,14,21,22.70
2014,07,19,14,22,22.70
2014,07,19,14,23,22.70
2014,07,19,14,24,22.70
2014,07,19,14,25,22.70
2014,07,19,14,26,22.70
2014,07,19,14,27,22.60
2014,07,19,14,28,22.60
2014,07,19,14,29,22.60
2014,07,19,14,30,22.60
2014,07,19,14,31,22.60
2014,07,19,14,32,22.60
2014,07,19,14,33,22.60
2014,07,19,14,34,22.70
2014,07,19,14,35,22.70
2014,07,19,14,36,22.70
2014,07,19,14,37,22.80
2014,07,19,14,38,22.80
2014,07,19,14,39,22.80
2014,07,19,14,40,22.90
2014,07,19,14,41,22.90
2014,07,19,14,42,23.00
2014,07,19,14,43,23.00
2014,07,19,14,44,23.00
2014,07,19,14,45,23.10
2014,07,19,14,46,23.10
2014,07,19,14,47,23.10
2014,07,19,14,48,23.20
2014,07,19,14,49,23.20
2014,07,19,14,50,23.30
2014,07,19,14,51,23.30
2014,07,19,14,52,23.40
2014,07,19,14,53,23.30
2014,07,19,14,54,23.30
2014,07,19,14,55,23.30
2014,07,19,14,56,23.40
2014,07,19,14,57,23.40
2014,07,19,14,58,23.40
2014,07,19,14,59,23.40
2014,07,19,15,00,23.40
2014,07,19,15,01,23.40
2014,07,19,15,02,23.40
2014,07,19,15,03,23.50
2014,07,19,15,04,23.50
2014,07,19,15,05,23.50
2014,07,19,15,06,23.50
2014,07,19,15,07,23.40
2014,07,19,15,08,23.40
2014,07,19,15,09,23.40
2014,07,19,15,10,23.40
2014,07,19,15,11,23.40
2014,07,19,15,12,23.50
2014,07,19,15,13,23.50
2014,07,19,15,14,23.60
2014,07,19,15,15,23.60
2014,07,19,15,16,23.60
2014,07,19,15,17,23.60
2014,07,19,15,18,23.60
2014,07,19,15,19,23.70
2014,07,19,15,20,23.80
2014,07,19,15,21,23.80
2014,07,19,15,22,23.90
2014,07,19,15,23,23.90
2014,07,19,15,24,23.90
2014,07,19,15,25,24.00
2014,07,19,15,26,24.00
2014,07,19,15,27,24.00
2014,07,19,15,28,24.10
2014,07,19,15,29,24.20
2014,07,19,15,30,24.30
2014,07,19,15,31,24.30
2014,07,19,15,32,24.30
2014,07,19,15,33,24.40
2014,07,19,15,34,24.50
2014,07,19,15,35,24.60
2014,07,19,15,36,24.90
2014,07,19,15,37,25.00
2014,07,19,15,38,25.20
2014,07,19,15,39,25.20
2014,07,19,15,40,25.20
2014,07,19,15,41,25.30
2014,07,19,15,42,25.30
2014,07,19,15,43,25.10
2014,07,19,15,44,25.00
2014,07,19,15,45,24.80
2014,07,19,15,46,24.80
2014,07,19,15,47,24.80
2014,07,19,15,48,24.80
2014,07,19,15,49,24.80
2014,07,19,15,50,24.90
2014,07,19,15,51,24.90
2014,07,19,15,52,25.00
2014,07,19,15,53,24.90
2014,07,19,15,54,24.80
2014,07,19,15,55,24.80
2014,07,19,15,56,24.80
2014,07,19,15,57,24.80
2014,07,19,15,58,24.80
2014,07,19,15,59,24.80
2014,07,19,16,00,24.90
2014,07,19,16,01,24.90
2014,07,19,16,02,24.90
2014,07,19,16,03,24.90
2014,07,19,16,04,24.80
2014,07,19,16,05,24.80
2014,07,19,16,06,24.80
2014,07,19,16,07,24.70
2014,07,19,16,08,24.60
2014,07,19,16,09,24.50
2014,07,19,16,10,24.50
2014,07,19,16,11,24.40
2014,07,19,16,12,24.50
2014,07,19,16,13,24.50
2014,07,19,16,14,24.50
2014,07,19,16,15,24.50
2014,07,19,16,16,24.50
2014,07,19,16,17,24.50
2014,07,19,16,18,24.50
2014,07,19,16,19,24.50
2014,07,19,16,20,24.50
2014,07,19,16,21,24.50
2014,07,19,16,22,24.40
2014,07,19,16,23,24.30
2014,07,19,16,24,24.20
2014,07,19,16,25,24.00
2014,07,19,16,26,24.00
2014,07,19,16,27,24.10
2014,07,19,16,28,24.10
2014,07,19,16,29,24.20
2014,07,19,16,30,24.20
2014,07,19,16,31,24.30
2014,07,19,16,32,24.30
2014,07,19,16,33,24.30
2014,07,19,16,34,24.30
2014,07,19,16,35,24.40
2014,07,19,16,36,24.50
2014,07,19,16,37,24.50
2014,07,19,16,38,24.40
2014,07,19,16,39,24.40
2014,07,19,16,40,24.30
2014,07,19,16,41,24.40
2014,07,19,16,42,24.30
2014,07,19,16,43,24.20
2014,07,19,16,44,24.00
2014,07,19,16,45,23.90
2014,07,19,16,46,24.00
2014,07,19,16,47,24.10
2014,07,19,16,48,24.20
2014,07,19,16,49,24.20
2014,07,19,16,50,24.30
2014,07,19,16,51,24.20
2014,07,19,16,52,24.20
2014,07,19,16,53,24.20
2014,07,19,16,54,24.30
2014,07,19,16,55,24.40
2014,07,19,16,56,24.40
2014,07,19,16,57,24.40
2014,07,19,16,58,24.50
2014,07,19,16,59,24.50
2014,07,19,17,00,24.60
2014,07,19,17,01,24.70
2014,07,19,17,02,24.70
2014,07,19,17,03,24.70
2014,07,19,17,04,24.70
2014,07,19,17,05,24.60
2014,07,19,17,06,24.50
2014,07,19,17,07,24.50
2014,07,19,17,08,24.50
2014,07,19,17,09,24.50
2014,07,19,17,10,24.40
2014,07,19,17,11,24.40
2014,07,19,17,12,24.50
2014,07,19,17,13,24.50
2014,07,19,17,14,24.50
2014,07,19,17,15,24.50
2014,07,19,17,16,24.50
2014,07,19,17,17,24.60
2014,07,19,17,18,24.60
2014,07,19,17,19,24.60